Terminal Aerodrome Forecast
Issued by NWS Grand Forks, ND

Home | Current Version | Previous Version | Text Only | Print | Product List | Glossary Off
Versions: 1 2 3 4 5 6 7 8 9 10 11 12 13 14 15

000
FTUS43 KFGF 201700
TAFFAR
TAF
KFAR 201720Z 2018/2118 18014KT P6SM SCT250
     FM210300 20014KT P6SM BKN120
     FM210600 28010KT P6SM SCT050
     FM211500 33019G26KT P6SM BKN030=

USA.gov is the U.S. government's official web portal to all federal, state and local government web resources and services.